{"data":{"norad_id":59670,"epoch":"2026-05-25T04:39:41.507424Z","epoch_age_seconds":65117,"freshness":"FRESH","line1":"1 59670U 24084S   26145.19423041  .00000718  00000+0  35610-4 0  9991","line2":"2 59670  43.0002 326.2694 0001295 272.4251  87.6452 15.27578901116094","mean_motion":15.27578901,"eccentricity":0.0001295,"inclination_deg":43.0002,"raan_deg":326.2694,"arg_perigee_deg":272.4251,"mean_anomaly_deg":87.6452,"bstar":3.561e-5,"rev_number":11609,"period_min":94.266816532837,"perigee_km":482.16386281739,"apogee_km":483.94091086858,"semimajor_km":6861.189386843,"source":"CELESTRAK","updated_at":"2026-05-25T13:38:19.020936Z"}}